• In Hungary
  • List of Countries
  • For 7 days
  • Water Temperature
  • Satellite Maps
  • Weather Map
  • News
  • Weather Widgets
  • user-avatar
    Login

    Hourly Weather Rimsko-Korsakovka

    Today, 23 October, Tuesday

    Time Temperature Precipitation Wind Pressure Humidity
    00:00 +5°C° 0 mm 3 mps 756 mmHg 56%
    01:00 +5°C° 0 mm 3 mps 756 mmHg 55%
    02:00 +7°C° 0 mm 3 mps 755 mmHg 54%
    03:00 +5°C° 0 mm 3 mps 755 mmHg 55%
    04:00 +5°C° 0 mm 4 mps 755 mmHg 54%
    05:00 +5°C° 0 mm 4 mps 754 mmHg 52%
    06:00 +5°C° 0 mm 4 mps 754 mmHg 51%
    07:00 +6°C° 0 mm 5 mps 753 mmHg 48%
    08:00 +6°C° 0 mm 5 mps 753 mmHg 46%
    09:00 +7°C° 0 mm 6 mps 753 mmHg 44%
    10:00 +8°C° 0 mm 6 mps 752 mmHg 44%
    11:00 +8°C° 0 mm 6 mps 751 mmHg 44%
    12:00 +9°C° 0 mm 6 mps 750 mmHg 43%
    13:00 +9°C° 0.1 mm 6 mps 750 mmHg 47%
    14:00 +9°C° 0.1 mm 6 mps 749 mmHg 50%
    15:00 +9°C° 0.1 mm 6 mps 748 mmHg 54%
    16:00 +9°C° 0 mm 5 mps 748 mmHg 54%
    17:00 +10°C° 0 mm 5 mps 747 mmHg 54%
    18:00 +10°C° 0 mm 5 mps 746 mmHg 54%
    19:00 +10°C° 0.1 mm 5 mps 746 mmHg 56%
    20:00 +10°C° 0.1 mm 5 mps 745 mmHg 59%
    21:00 +10°C° 0.1 mm 4 mps 745 mmHg 61%
    22:00 +10°C° 0 mm 4 mps 745 mmHg 67%
    23:00 +10°C° 0 mm 4 mps 744 mmHg 73%

    Tomorrow, 24 October, Wednesday

    Time Temperature Precipitation Wind Pressure Humidity
    00:00 +9°C° 0 mm 3 mps 744 mmHg 79%
    01:00 +9°C° 0 mm 3 mps 744 mmHg 82%
    02:00 +9°C° 0 mm 3 mps 744 mmHg 86%
    03:00 +9°C° 0 mm 3 mps 744 mmHg 89%
    04:00 +9°C° 0 mm 3 mps 744 mmHg 91%
    05:00 +8°C° 0 mm 3 mps 743 mmHg 93%
    06:00 +8°C° 0 mm 3 mps 743 mmHg 95%
    07:00 +7°C° 0 mm 4 mps 743 mmHg 88%
    08:00 +8°C° 0 mm 5 mps 743 mmHg 81%
    09:00 +9°C° 0 mm 5 mps 743 mmHg 74%
    10:00 +10°C° 0 mm 6 mps 743 mmHg 66%
    11:00 +13°C° 0 mm 6 mps 742 mmHg 58%
    12:00 +14°C° 0 mm 7 mps 742 mmHg 50%
    13:00 +14°C° 0 mm 6 mps 742 mmHg 50%
    14:00 +14°C° 0 mm 6 mps 742 mmHg 49%
    15:00 +14°C° 0 mm 6 mps 741 mmHg 49%
    16:00 +13°C° 0 mm 5 mps 741 mmHg 52%
    17:00 +12°C° 0 mm 5 mps 741 mmHg 56%
    18:00 +11°C° 0 mm 4 mps 741 mmHg 59%
    19:00 +10°C° 0 mm 5 mps 741 mmHg 60%
    20:00 +10°C° 0 mm 6 mps 740 mmHg 61%
    21:00 +11°C° 0 mm 6 mps 740 mmHg 62%
    22:00 +11°C° 0.3 mm 7 mps 740 mmHg 68%
    23:00 +11°C° 0.3 mm 7 mps 740 mmHg 74%

    Day after tomorrow, 25 October, Thursday

    Time Temperature Precipitation Wind Pressure Humidity
    00:00 +11°C° 0.3 mm 7 mps 739 mmHg 81%
    01:00 +11°C° 0.4 mm 7 mps 739 mmHg 81%
    02:00 +11°C° 0.4 mm 7 mps 738 mmHg 81%
    03:00 +11°C° 0.4 mm 7 mps 738 mmHg 81%
    04:00 +11°C° 0.4 mm 7 mps 738 mmHg 79%
    05:00 +11°C° 0.4 mm 7 mps 737 mmHg 76%
    06:00 +11°C° 0.4 mm 8 mps 737 mmHg 74%
    07:00 +11°C° 0.3 mm 7 mps 736 mmHg 71%
    08:00 +11°C° 0.3 mm 7 mps 736 mmHg 69%
    09:00 +11°C° 0.3 mm 7 mps 736 mmHg 66%
    10:00 +12°C° 0 mm 7 mps 735 mmHg 63%
    11:00 +14°C° 0 mm 7 mps 735 mmHg 61%
    12:00 +15°C° 0 mm 6 mps 735 mmHg 59%
    13:00 +15°C° 0.1 mm 6 mps 734 mmHg 62%
    14:00 +14°C° 0.1 mm 5 mps 734 mmHg 65%
    15:00 +14°C° 0.1 mm 4 mps 734 mmHg 69%
    16:00 +14°C° 0.2 mm 4 mps 734 mmHg 73%
    17:00 +13°C° 0.2 mm 3 mps 734 mmHg 77%
    18:00 +13°C° 0.2 mm 3 mps 734 mmHg 82%
    19:00 +12°C° 0.4 mm 3 mps 734 mmHg 84%
    20:00 +12°C° 0.4 mm 4 mps 734 mmHg 86%
    21:00 +12°C° 0.4 mm 4 mps 734 mmHg 88%
    22:00 +11°C° 0.6 mm 4 mps 735 mmHg 85%
    23:00 +10°C° 0.6 mm 5 mps 735 mmHg 81%

    26 October, Friday

    Time Temperature Precipitation Wind Pressure Humidity
    00:00 +9°C° 0.6 mm 5 mps 736 mmHg 77%
    01:00 +8°C° 0.1 mm 5 mps 736 mmHg 76%
    02:00 +8°C° 0.1 mm 4 mps 737 mmHg 74%
    03:00 +7°C° 0.1 mm 4 mps 737 mmHg 72%
    04:00 +7°C° 0 mm 4 mps 737 mmHg 73%
    05:00 +7°C° 0 mm 4 mps 738 mmHg 75%
    06:00 +6°C° 0 mm 4 mps 738 mmHg 76%
    07:00 +7°C° 0 mm 4 mps 739 mmHg 72%
    08:00 +7°C° 0 mm 5 mps 739 mmHg 68%
    09:00 +8°C° 0 mm 5 mps 740 mmHg 64%
    10:00 +8°C° 0 mm 6 mps 740 mmHg 60%
    11:00 +9°C° 0 mm 6 mps 740 mmHg 56%
    12:00 +10°C° 0 mm 6 mps 741 mmHg 52%
    13:00 +9°C° 0 mm 6 mps 741 mmHg 53%
    14:00 +9°C° 0 mm 7 mps 741 mmHg 53%
    15:00 +9°C° 0 mm 7 mps 741 mmHg 53%
    16:00 +8°C° 0 mm 6 mps 742 mmHg 57%
    17:00 +7°C° 0 mm 5 mps 742 mmHg 60%
    18:00 +6°C° 0 mm 4 mps 743 mmHg 63%
    19:00 +5°C° 0 mm 4 mps 743 mmHg 64%
    20:00 +5°C° 0 mm 4 mps 743 mmHg 65%
    21:00 +4°C° 0 mm 4 mps 744 mmHg 67%
    22:00 +4°C° 0 mm 3 mps 744 mmHg 68%
    23:00 +3°C° 0 mm 3 mps 745 mmHg 70%

    27 October, Saturday

    Time Temperature Precipitation Wind Pressure Humidity
    00:00 +3°C° 0 mm 3 mps 745 mmHg 72%
    01:00 +2°C° 0 mm 3 mps 745 mmHg 73%
    02:00 +2°C° 0 mm 3 mps 746 mmHg 73%
    03:00 +2°C° 0 mm 3 mps 746 mmHg 74%
    04:00 +2°C° 0 mm 3 mps 746 mmHg 74%
    05:00 +1°C° 0 mm 3 mps 747 mmHg 74%
    06:00 +1°C° 0 mm 3 mps 747 mmHg 74%
    07:00 +1°C° 0 mm 4 mps 747 mmHg 69%
    08:00 +2°C° 0 mm 5 mps 748 mmHg 64%
    09:00 +3°C° 0 mm 5 mps 748 mmHg 59%
    10:00 +4°C° 0 mm 6 mps 748 mmHg 56%
    11:00 +5°C° 0 mm 6 mps 749 mmHg 53%
    12:00 +6°C° 0 mm 7 mps 749 mmHg 50%
    13:00 +6°C° 0 mm 7 mps 749 mmHg 52%
    14:00 +6°C° 0 mm 7 mps 750 mmHg 54%
    15:00 +6°C° 0 mm 7 mps 750 mmHg 55%
    16:00 +6°C° 0 mm 5 mps 751 mmHg 60%
    17:00 +5°C° 0 mm 4 mps 751 mmHg 65%
    18:00 +4°C° 0 mm 3 mps 752 mmHg 70%
    19:00 +3°C° 0 mm 3 mps 752 mmHg 72%
    20:00 +3°C° 0 mm 3 mps 752 mmHg 74%
    21:00 +3°C° 0 mm 3 mps 753 mmHg 76%
    22:00 +3°C° 0 mm 4 mps 753 mmHg 77%
    23:00 +1°C° 0 mm 4 mps 753 mmHg 78%

    28 October, Sunday

    Time Temperature Precipitation Wind Pressure Humidity
    00:00 +1°C° 0 mm 4 mps 753 mmHg 78%
    01:00 +2°C° 0 mm 5 mps 752 mmHg 77%
    02:00 +2°C° 0 mm 6 mps 752 mmHg 75%
    03:00 +2°C° 0 mm 6 mps 752 mmHg 74%
    04:00 +3°C° 0 mm 7 mps 752 mmHg 74%
    05:00 +2°C° 0 mm 8 mps 751 mmHg 74%
    06:00 +4°C° 0 mm 8 mps 751 mmHg 75%
    07:00 +5°C° 0 mm 9 mps 751 mmHg 74%
    08:00 +6°C° 0 mm 10 mps 751 mmHg 74%
    09:00 +7°C° 0 mm 10 mps 750 mmHg 73%
    10:00 +8°C° 0.2 mm 10 mps 750 mmHg 76%
    11:00 +9°C° 0.2 mm 10 mps 750 mmHg 78%
    12:00 +9°C° 0.2 mm 10 mps 750 mmHg 80%
    13:00 +11°C° 0.6 mm 10 mps 750 mmHg 80%
    14:00 +11°C° 0.6 mm 10 mps 750 mmHg 80%
    15:00 +11°C° 0.6 mm 10 mps 750 mmHg 80%
    16:00 +11°C° 0.1 mm 9 mps 751 mmHg 79%
    17:00 +11°C° 0.1 mm 8 mps 751 mmHg 79%
    18:00 +11°C° 0.1 mm 7 mps 752 mmHg 79%
    19:00 +11°C° 0.1 mm 7 mps 752 mmHg 81%
    20:00 +11°C° 0.1 mm 6 mps 753 mmHg 83%
    21:00 +12°C° 0.1 mm 5 mps 753 mmHg 85%
    22:00 +10°C° 0.2 mm 5 mps 753 mmHg 86%
    23:00 +11°C° 0.2 mm 4 mps 754 mmHg 87%

    29 October, Monday

    Time Temperature Precipitation Wind Pressure Humidity
    00:00 +11°C° 0.2 mm 3 mps 754 mmHg 88%
    01:00 +12°C° 0.1 mm 2 mps 755 mmHg 88%
    02:00 +10°C° 0.1 mm 2 mps 755 mmHg 87%
    03:00 +11°C° 0.1 mm 1 mps 755 mmHg 87%
    04:00 +10°C° 0.1 mm 1 mps 755 mmHg 86%
    05:00 +9°C° 0.1 mm 2 mps 756 mmHg 85%
    06:00 +9°C° 0.1 mm 2 mps 756 mmHg 85%
    07:00 +9°C° 0.1 mm 2 mps 756 mmHg 83%
    08:00 +9°C° 0.1 mm 2 mps 757 mmHg 82%
    09:00 +9°C° 0.1 mm 2 mps 757 mmHg 80%
    10:00 +10°C° 0 mm 2 mps 757 mmHg 78%
    11:00 +10°C° 0 mm 2 mps 757 mmHg 76%
    12:00 +12°C° 0 mm 2 mps 758 mmHg 74%
    13:00 +12°C° 0 mm 2 mps 758 mmHg 72%
    14:00 +13°C° 0 mm 2 mps 758 mmHg 71%
    15:00 +13°C° 0 mm 2 mps 758 mmHg 70%
    16:00 +12°C° 0 mm 2 mps 758 mmHg 73%
    17:00 +12°C° 0 mm 2 mps 758 mmHg 77%
    18:00 +10°C° 0 mm 2 mps 758 mmHg 80%
    19:00 +10°C° 0 mm 2 mps 758 mmHg 80%
    20:00 +10°C° 0 mm 2 mps 758 mmHg 80%
    21:00 +10°C° 0 mm 2 mps 759 mmHg 80%
    22:00 +9°C° 0 mm 2 mps 759 mmHg 81%
    23:00 +9°C° 0 mm 2 mps 759 mmHg 82%
    Show more